Weather History for Morris, IL

Change the Weather History Date:

Thursday, May 8, 2014

  Actual Average (KLOT) Record (KLOT)
Temperature  
Mean Temperature 78 °F 58 °F  
Max Temperature 92 °F 69 °F 89 °F (2014)
Min Temperature 63 °F 47 °F 38 °F (1994)
Degree Days  
Heating Degree Days 0 8  
Month to date heating degree days 70  
Since 1 July heating degree days 6064  
Cooling Degree Days 12 1  
Month to date cooling degree days 6  
Year to date cooling degree days 11  
Growing Degree Days 28 (Base 50)    
Moisture  
Dew Point 59 °F    
Average Humidity 58    
Maximum Humidity 93    
Minimum Humidity 26    
Precipitation  
Precipitation 0.00 in 0.14 in 0.68 in (1995)
Month to date precipitation 1.14  
Year to date precipitation 11.58  
Sea Level Pressure  
Sea Level Pressure 29.82 in    
Wind  
Wind Speed 12 mph (SSW)    
Max Wind Speed 23 mph    
Max Gust Speed 38 mph    
Visibility 10 miles    
Events Rain , Thunderstorm    
T = Trace of Precipitation, MM = Missing Value Source: NWS Daily Summary

Daily Weather History Graph

Daily Weather History Graph

Search for Another Location

Airport:

Trip Planner

Search our weather history database for the weather conditions in past years. The results will help you decide how hot, cold, wet, or windy it might be!

Date:

Astronomy

May. 08, 2014 Rise Set
Actual Time 5:42 AM CDT 7:58 PM CDT
Civil Twilight 5:11 AM CDT 8:29 PM CDT
Nautical Twilight 4:33 AM CDT 9:07 PM CDT
Astronomical Twilight 3:51 AM CDT 9:50 PM CDT
Moon 1:55 PM CDT (5/8) 2:17 AM CDT (5/8)
Length of Visible Light 15h 18m
Length of Day
14h 16m
Waxing Gibbous, 65% of the Moon is Illuminated
May 8
Waxing Gibbous
May 14
Full
May 21
Last Quarter
May 28
New
Jun 5
First Quarter

Hourly Weather History & Observations

Time (CDT) Temp. Heat Index Dew Point Humidity Pressure Visibility Wind Dir Wind Speed Gust Speed Precip Events Conditions
12:15 AM 71.1 °F - 59.5 °F 67% 29.80 in 10.0 mi South 12.7 mph - N/A   Clear
12:35 AM 70.7 °F - 59.2 °F 67% 29.81 in 10.0 mi South 12.7 mph - N/A   Clear
12:55 AM 70.2 °F - 58.8 °F 67% 29.81 in 10.0 mi South 11.5 mph - N/A   Clear
1:15 AM 69.4 °F - 58.3 °F 68% 29.81 in 10.0 mi South 10.4 mph - N/A   Clear
1:35 AM 68.0 °F - 58.1 °F 71% 29.81 in 10.0 mi South 9.2 mph - N/A   Clear
1:55 AM 67.1 °F - 57.7 °F 72% 29.81 in 10.0 mi South 10.4 mph - N/A   Clear
2:15 AM 66.2 °F - 57.2 °F 73% 29.81 in 10.0 mi South 9.2 mph - N/A   Clear
2:35 AM 66.2 °F - 57.2 °F 73% 29.81 in 10.0 mi South 8.1 mph - N/A   Clear
2:55 AM 66.2 °F - 57.7 °F 74% 29.81 in 10.0 mi South 8.1 mph - N/A   Clear
3:15 AM 66.2 °F - 57.9 °F 75% 29.81 in 10.0 mi SSE 8.1 mph - N/A   Clear
3:35 AM 66.0 °F - 57.9 °F 75% 29.81 in 10.0 mi South 9.2 mph - N/A   Clear
3:55 AM 65.5 °F - 57.7 °F 76% 29.81 in 10.0 mi South 8.1 mph - N/A   Clear
4:15 AM 65.3 °F - 57.7 °F 76% 29.81 in 10.0 mi South 9.2 mph - N/A   Clear
4:35 AM 64.4 °F - 57.6 °F 78% 29.83 in 10.0 mi South 6.9 mph - N/A   Clear
4:55 AM 63.7 °F - 57.6 °F 80% 29.84 in 10.0 mi South 8.1 mph - N/A   Clear
5:15 AM 64.4 °F - 57.7 °F 79% 29.84 in 10.0 mi South 6.9 mph - N/A   Clear
5:35 AM 63.5 °F - 57.6 °F 81% 29.84 in 10.0 mi SSE 6.9 mph - N/A   Clear
5:55 AM 63.5 °F - 57.7 °F 81% 29.85 in 10.0 mi SSE 5.8 mph - N/A   Clear
6:15 AM 63.3 °F - 57.9 °F 83% 29.85 in 10.0 mi South 6.9 mph - N/A   Clear
6:35 AM 64.6 °F - 58.5 °F 80% 29.85 in 10.0 mi SSE 6.9 mph - N/A   Clear
6:55 AM 65.7 °F - 59.0 °F 79% 29.86 in 10.0 mi South 8.1 mph - N/A   Clear
7:15 AM 67.3 °F - 59.5 °F 76% 29.86 in 10.0 mi South 10.4 mph - N/A   Clear
7:35 AM 68.0 °F - 59.7 °F 75% 29.86 in 10.0 mi South 9.2 mph - N/A   Clear
7:55 AM 69.3 °F - 60.1 °F 72% 29.87 in 10.0 mi South 11.5 mph - N/A   Clear
8:15 AM 70.7 °F - 60.8 °F 71% 29.87 in 10.0 mi South 8.1 mph - N/A   Clear
8:35 AM 72.5 °F - 61.5 °F 68% 29.87 in 7.0 mi SSW 8.1 mph - N/A   Clear
8:55 AM 75.7 °F - 62.6 °F 64% 29.85 in 7.0 mi SSW 9.2 mph - N/A   Clear
9:15 AM 74.3 °F - 62.2 °F 66% 29.87 in 10.0 mi SW 8.1 mph - N/A   Clear
9:35 AM 75.4 °F - 63.1 °F 66% 29.87 in 10.0 mi SSW 11.5 mph - N/A   Clear
9:55 AM 76.3 °F - 62.2 °F 62% 29.87 in 10.0 mi SSW 13.8 mph - N/A   Clear
10:15 AM 77.7 °F - 62.6 °F 60% 29.86 in 10.0 mi SSW 13.8 mph 17.3 mph N/A   Clear
10:35 AM 78.6 °F - 62.2 °F 57% 29.85 in 10.0 mi South 16.1 mph 19.6 mph N/A   Clear
10:55 AM 79.3 °F - 62.4 °F 56% 29.86 in 10.0 mi SSE 10.4 mph 16.1 mph N/A   Clear
11:15 AM 82.4 °F 83.2 °F 62.1 °F 50% 29.87 in 10.0 mi SSW 17.3 mph - N/A   Clear
11:35 AM 82.4 °F 83.0 °F 61.3 °F 49% 29.88 in 10.0 mi SW 19.6 mph - N/A   Clear
11:55 AM 84.0 °F 84.2 °F 60.8 °F 45% 29.88 in 7.0 mi SW 15.0 mph 24.2 mph N/A   Clear
12:15 PM 84.6 °F 84.8 °F 61.2 °F 45% 29.85 in 10.0 mi South 13.8 mph 19.6 mph N/A   Clear
12:35 PM 85.6 °F 85.2 °F 59.7 °F 41% 29.84 in 10.0 mi South 13.8 mph 20.7 mph N/A   Clear
12:55 PM 87.4 °F 86.9 °F 59.7 °F 39% 29.83 in 10.0 mi South 12.7 mph 21.9 mph N/A   Clear
1:15 PM 88.2 °F 87.3 °F 58.6 °F 37% 29.83 in 7.0 mi SSW 13.8 mph 19.6 mph N/A   Clear
1:35 PM 89.8 °F 89.1 °F 59.5 °F 36% 29.83 in 10.0 mi SSW 15.0 mph 20.7 mph N/A   Clear
1:55 PM 89.8 °F 89.1 °F 59.2 °F 36% 29.83 in 10.0 mi SSW 15.0 mph 20.7 mph N/A   Clear
2:15 PM 90.5 °F 89.5 °F 58.6 °F 34% 29.82 in 10.0 mi SSW 11.5 mph 20.7 mph N/A   Clear
2:35 PM 90.9 °F 89.7 °F 58.3 °F 33% 29.81 in 10.0 mi South 12.7 mph 18.4 mph N/A   Clear
2:55 PM 90.7 °F 89.2 °F 56.8 °F 32% 29.79 in 10.0 mi SSW 13.8 mph 19.6 mph N/A   Clear
3:15 PM 91.8 °F 90.0 °F 56.3 °F 30% 29.78 in 10.0 mi SSW 16.1 mph 20.7 mph N/A   Clear
3:35 PM 92.7 °F 90.6 °F 54.7 °F 28% 29.77 in 7.0 mi South 19.6 mph 25.3 mph N/A   Clear
3:55 PM 92.7 °F 90.1 °F 53.4 °F 26% 29.76 in 10.0 mi SSW 19.6 mph 26.5 mph N/A   Clear
4:15 PM 91.6 °F 89.6 °F 54.9 °F 29% 29.77 in 10.0 mi SSW 21.9 mph - N/A   Clear
4:35 PM 91.2 °F 89.1 °F 54.5 °F 29% 29.77 in 7.0 mi SSW 20.7 mph - N/A   Scattered Clouds
4:55 PM 90.9 °F 88.5 °F 53.1 °F 28% 29.77 in 10.0 mi SSW 19.6 mph 29.9 mph N/A   Scattered Clouds
5:15 PM 90.1 °F - 51.4 °F 27% 29.78 in 10.0 mi SSW 21.9 mph 31.1 mph N/A   Clear
5:35 PM 88.7 °F - 51.8 °F 28% 29.77 in 10.0 mi SSW 19.6 mph 26.5 mph N/A   Clear
5:55 PM 87.8 °F - 52.5 °F 30% 29.78 in 10.0 mi SSW 19.6 mph 26.5 mph N/A   Clear
6:15 PM 86.5 °F 84.6 °F 53.4 °F 32% 29.78 in 10.0 mi SSW 19.6 mph 25.3 mph N/A   Clear
6:35 PM 86.0 °F - 52.7 °F 32% 29.78 in 10.0 mi SSW 20.7 mph 28.8 mph N/A   Clear
6:55 PM 85.1 °F 83.6 °F 54.7 °F 35% 29.78 in 10.0 mi SSW 19.6 mph 24.2 mph N/A   Clear
7:15 PM 84.2 °F 83.7 °F 57.9 °F 41% 29.78 in 10.0 mi SSW 18.4 mph 26.5 mph N/A   Clear
7:35 PM 83.3 °F 83.4 °F 59.9 °F 45% 29.79 in 10.0 mi SSW 23.0 mph - N/A   Clear
7:55 PM 82.4 °F 82.7 °F 60.3 °F 47% 29.80 in 10.0 mi SSW 18.4 mph 26.5 mph N/A   Clear
8:15 PM 81.9 °F 82.3 °F 60.3 °F 48% 29.80 in 10.0 mi SSW 18.4 mph 28.8 mph N/A   Clear
8:35 PM 81.1 °F 81.8 °F 60.1 °F 49% 29.81 in 10.0 mi SSW 19.6 mph 27.6 mph N/A   Clear
8:55 PM 80.8 °F 81.4 °F 60.3 °F 49% 29.81 in 10.0 mi SSW 20.7 mph 27.6 mph N/A   Scattered Clouds
9:15 PM 79.0 °F - 61.0 °F 54% 29.81 in 10.0 mi SSW 11.5 mph - N/A   Mostly Cloudy
9:35 PM 77.5 °F - 61.3 °F 57% 29.82 in 10.0 mi SSW 9.2 mph - N/A   Clear
9:55 PM 77.0 °F - 62.6 °F 61% 29.82 in 10.0 mi SSW 10.4 mph - N/A   Clear
10:15 PM 75.2 °F - 62.6 °F 65% 29.83 in 10.0 mi WSW 20.7 mph 24.2 mph N/A   Scattered Clouds
10:35 PM 71.6 °F - 63.7 °F 76% 29.82 in 10.0 mi SW 13.8 mph - N/A   Scattered Clouds
10:55 PM 69.8 °F - 64.4 °F 83% 29.84 in 7.0 mi SW 23.0 mph 38.0 mph N/A Rain , Thunderstorm Heavy Thunderstorms and Rain
11:15 PM 68.0 °F - 64.9 °F 90% 29.83 in 10.0 mi WSW 11.5 mph - N/A Rain , Thunderstorm Light Thunderstorms and Rain
11:35 PM 67.5 °F - 64.8 °F 91% 29.82 in 10.0 mi WSW 8.1 mph - N/A Rain Rain
11:55 PM 67.3 °F - 65.3 °F 93% 29.81 in 10.0 mi West 8.1 mph - N/A   Overcast